SCP
0 0 -0 0 0 0 0 0 0 0 0 0 0 0 0 0 0 0 0 0 0 0 0 0 0 0 0 0 0 0 0 0 0 0 0 0 0 0 0 0 0 0 0 0
0 0 -0 0 0 0 0 0 0 0 0 0 0 0 0 0 0 0 0 0 0 0 0 0 0 0 0 0 0 0 0 0 0 0 0 0 0 0 0 0 0 0 0 0
0 0 0 0 0 0 0 0 0 0 0 0 0 0 0 0 0 0 0 0 0 0 0 0 0 0 0 0 0 0 0 0 0 0 0 0 0 0 0 0 0 0 0 0
0 0 0 0 0 0 0 0 0 0 0 0 0 0 0 0 0 0 0 0 0 0 0 0 0 0 0 0 0 0 0 0 0 0 0 0 0 0 0 0 0 0 0 0
0 0 0 0 0 0 0 0 0 0 0 0 0 0 0 0 0 0 0 0 0 0 0 0 0 0 0 0 0 0 0 0 0 0 0 0 0 0 0 0 0 0 0 0
0 0 0 0 0 0 0 0 0 0 0 0 0 0 0 0 0 0 1 1 0 0 0 0 0 0 0 0 0 0 0 0 0 0 0 0 0 0 0 0 0 0 0 0
0 0 0 0 0 0 0 0 0 0 0 0 0 0 0 0 0 0 1 1 0 0 0 0 0 0 0 0 0 0 0 0 0 0 0 0 0 0 0 0 0 0 0 0
0 0 0 0 0 0 0 0 0 0 0 0 0 0 0 0 0 0 1 1 0 0 0 0 0 0 0 0 0 0 0 0 0 0 0 0 0 0 0 0 0 0 0 0
0 0 0 0 0 0 0 0 0 0 0 0 0 0 0 0 0 0 0 0 0 0 0 0 0 0 0 0 0 0 0 0 0 0 0 0 0 0 0 0 0 0 0 0
0 0 0 0 0 0 0 0 0 0 0 0 0 0 0 0 0 0 0 0 0 0 0 0 0 0 0 0 0 0 0 0 0 0 0 0 0 0 0 0 0 0 0 0
0 0 0 0 0 0 0 0 0 0 0 0 0 0 0 0 0 0 0 0 0 0 0 0 0 0 0 0 0 0 0 0 0 0 0 0 0 0 0 0 0 0 0 0
0 0 0 0 0 0 0 0 0 0 0 0 0 0 0 0 0 0 0 0 0 0 0 0 0 0 0 0 0 0 0 0 0 0 0 0 0 0 0 0 0 0 0 0
0 0 0 0 0 0 0 0 0 0 0 0 0 0 0 0 0 0 0 0 0 0 0 0 0 0 0 0 0 0 0 0 0 0 0 0 0 0 0 0 0 0 0 0
0 0 0 0 0 0 0 0 0 0 0 0 0 0 0 0 0 0 0 0 0 0 0 0 0 0 0 0 0 0 0 0 0 0 0 0 0 0 0 0 0 0 0 0
0 0 0 0 0 0 0 0 0 0 0 0 0 0 0 0 0 0 0 0 0 0 0 0 0 0 0 0 0 0 0 0 0 0 0 0 0 0 0 0 0 0 0 0
0 0 0 0 0 0 0 0 0 0 0 0 0 0 0 0 0 0 0 0 0 0 0 0 0 0 0 0 0 0 0 0 0 0 0 0 0 0 0 0 0 0 0 0
0 0 0 0 0 0 0 0 0 0 0 0 0 0 0 0 0 0 0 0 0 0 0 0 0 0 0 0 0 0 0 0 0 0 0 0 0 0 0 0 0 0 0 0
0 0 0 0 0 0 0 0 0 0 0 0 0 0 0 0 0 0 0 0 0 0 0 0 0 0 0 0 0 0 0 0 0 0 0 0 0 0 0 0 0 0 0 0
0 0 0 0 0 0 0 0 0 0 0 0 0 0 0 0 0 0 0 0 0 0 0 0 0 0 0 0 0 0 0 0 0 0 0 0 0 0 0 0 0 0 0 0
0 0 0 0 0 0 0 0 0 0 0 0 0 0 0 0 0 0 0 0 0 0 0 0 0 0 0 0 0 0 0 0 0 0 0 0 0 0 0 0 0 0 0 0
0 0 0 0 0 0 0 0 0 0 0 0 0 0 0 0 0 0 0 0 0 0 0 0 0 0 0 0 0 0 0 0 0 0 0 0 0 0 0 0 0 0 0 0
0 0 0 0 0 0 0 0 0 0 0 0 0 0 0 0 0 0 0 0 0 0 0 0 0 0 0 0 0 0 0 0 0 0 0 0 0 0 0 0 0 0 0 0
0 0 0 0 0 0 0 0 0 0 0 0 0 0 0 0 0 0 0 0 0 0 0 0 0 0 0 0 0 0 0 0 0 0 0 0 0 0 0 0 0 0 0 0
0 0 0 0 0 0 0 0 0 0 0 0 0 0 0 0 0 0 0 0 0 0 0 0 0 0 0 0 0 0 0 0 0 0 0 0 0 0 0 0 0 0 0 0
0 0 0 0 0 0 0 0 0 0 0 0 0 0 0 0 0 0 0 0 0 0 0 0 0 0 0 0 0 0 0 0 0 0 0 0 0 0 0 0 0 0 0 0
0 0 0 0 0 0 0 0 0 0 0 0 0 0 0 0 0 0 0 0 0 0 0 0 0 0 0 0 0 0 0 0 0 0 0 0 0 0 0 0 0 0 0 0
Wind_Speed
1 2 3 6 6 6 3 2 3 5 3 5 7 7 8 7 7 9 9 8 9 9 7 6 7 7 7 6 5 5 5 3 3 2 2 2 2 2 2 3 4 4 3 3
3 5 10 6 5 4 3 2 4 4 1 4 7 5 4 6 8 11 11 10 10 9 8 7 6 6 6 6 4 4 5 4 3 2 1 2 2 2 2 2 3 4 4 3
6 8 6 6 6 4 5 5 5 2 2 5 7 3 2 2 4 6 9 10 10 11 10 9 7 6 6 5 3 5 5 5 4 3 3 3 3 2 3 3 3 4 4 4
6 8 5 5 6 6 5 7 6 4 4 0 3 3 4 4 4 6 7 9 9 9 9 8 8 6 6 5 4 5 5 5 5 4 4 4 3 2 1 1 2 3 4 4
6 4 4 5 8 6 5 4 3 3 4 3 3 3 4 4 5 7 8 10 9 9 10 9 8 7 6 6 5 5 6 6 5 5 5 5 4 2 2 2 3 3 3 4
7 5 4 6 5 4 3 5 6 6 6 2 2 2 4 4 8 9 9 10 11 10 10 9 8 7 6 5 5 5 6 5 4 5 5 5 4 4 4 3 3 3 2 3
5 6 4 2 0 2 4 6 4 5 4 2 2 2 5 5 5 9 11 10 10 10 10 10 10 8 6 6 5 5 5 4 4 5 5 4 4 4 4 2 2 2 2 2
1 5 4 1 4 3 3 9 8 4 3 2 2 1 5 4 2 6 8 9 10 10 9 10 9 9 7 6 5 5 5 4 3 4 4 4 3 3 2 2 2 2 1 1
4 4 4 3 2 5 3 2 7 7 3 2 2 3 4 3 5 8 10 10 10 8 9 9 9 8 7 7 6 5 5 4 4 4 3 4 3 3 3 2 2 1 1 2
4 1 4 3 4 3 5 6 5 6 4 1 2 3 3 2 4 7 9 10 10 9 9 9 8 8 6 6 5 5 5 4 3 3 3 3 3 3 3 3 3 3 3 3
3 3 3 3 2 1 2 3 4 4 5 6 3 5 4 7 7 9 9 10 11 10 10 9 8 8 7 6 5 5 4 4 4 3 3 4 3 3 3 3 3 3 3 4
2 5 0 3 3 2 3 3 5 4 2 4 4 5 2 6 7 10 10 10 10 10 9 9 9 8 7 6 5 4 4 4 3 3 3 3 3 4 4 4 4 4 4 4
4 6 3 6 7 5 2 1 3 6 4 3 3 3 2 4 6 8 11 11 11 10 10 9 8 8 7 6 5 4 4 3 3 3 3 3 3 3 3 3 3 4 4 4
6 5 5 5 4 2 3 4 3 5 4 3 4 4 2 4 6 7 9 10 11 11 10 10 8 7 6 6 5 4 3 3 3 3 3 3 3 2 2 3 3 4 4 4
6 4 2 1 1 2 3 4 3 3 4 6 5 5 6 7 8 8 9 10 10 10 10 10 9 7 6 6 5 4 4 3 3 3 3 2 2 2 3 3 3 3 4 4
5 4 3 3 3 3 4 5 4 3 3 5 6 2 3 6 7 7 9 11 10 10 10 10 9 8 7 6 5 5 3 3 3 3 2 2 2 3 3 3 3 4 4 4
3 4 4 1 2 4 4 4 3 3 3 5 4 4 7 7 8 9 9 10 10 11 10 10 9 8 7 6 6 5 4 3 3 3 2 2 3 3 2 2 3 4 3 4
5 4 3 1 4 2 3 2 4 7 4 4 6 7 7 7 6 5 6 9 9 9 9 9 8 7 6 5 5 4 4 4 3 3 3 3 3 3 3 3 3 3 3 3
5 6 4 3 2 1 2 2 1 4 3 2 7 7 5 7 6 3 3 6 8 9 8 7 7 7 6 6 5 5 4 4 4 3 3 3 3 3 3 2 2 2 2 3
5 5 5 3 3 1 3 4 0 6 2 1 6 8 8 6 4 3 4 7 8 8 8 8 7 7 6 5 5 6 4 4 4 3 3 2 2 3 2 2 1 2 2 2
3 3 3 2 1 3 5 4 2 3 5 4 6 8 7 4 5 7 9 8 8 9 9 8 8 7 6 5 6 6 5 4 3 3 3 2 2 2 2 1 1 1 2 2
3 3 2 3 1 4 5 2 2 4 2 5 5 5 5 6 8 10 10 10 10 9 8 8 7 6 4 5 6 5 4 3 3 3 3 2 1 1 2 2 2 2 2 2
2 4 4 4 4 4 1 2 2 4 5 4 4 6 9 9 9 10 9 9 9 8 7 6 7 6 4 5 6 6 4 3 4 3 2 2 2 2 2 2 2 2 2 2
2 2 4 3 1 1 2 3 3 5 6 6 7 8 9 9 10 10 9 8 8 7 6 6 7 6 5 4 5 5 4 4 4 3 2 2 2 2 2 2 1 1 1 1
2 2 3 2 2 2 2 2 4 6 8 9 8 7 9 11 10 9 8 8 7 6 5 6 6 6 6 5 5 4 4 5 4 3 2 2 1 1 2 2 1 1 1 2
1 4 5 5 6 5 3 3 6 8 8 10 9 8 7 9 10 8 8 7 7 7 6 6 6 6 6 5 5 4 4 5 4 3 2 1 1 1 1 1 1 3 1 1
Wind_Direction
215 90 240 236 203 199 211 223 257 257 236 132 143 155 165 159 138 138 138 139 140 132 130 125 116 112 103 83 67 62 65 54 59 78 92 89 80 68 58 53 49 43 35 34
24 256 239 236 247 239 243 237 268 296 297 125 127 143 163 161 164 158 154 151 150 141 136 129 117 106 100 95 85 70 60 51 45 60 89 102 105 88 79 52 38 33 33 30
208 245 239 232 251 258 261 211 212 225 18 75 113 89 168 181 154 149 151 152 153 157 152 141 129 118 109 104 92 84 67 55 44 47 69 73 63 50 41 33 26 20 28 27
246 254 245 225 233 214 249 226 193 174 120 81 114 152 236 195 166 163 164 161 163 158 149 142 135 127 119 114 100 86 73 57 46 51 72 83 87 83 59 44 31 18 24 24
256 242 225 230 238 209 218 209 160 145 122 79 21 123 250 177 185 193 178 169 163 154 149 144 139 134 125 117 103 88 75 58 47 51 68 80 77 74 55 44 42 28 16 16
252 261 219 216 230 190 143 58 42 55 78 75 267 143 251 216 198 188 183 170 159 151 146 138 132 124 111 102 97 88 80 67 57 59 62 74 78 73 64 48 37 26 15 9
304 295 280 243 358 353 89 85 37 14 27 252 265 137 252 253 216 184 177 167 155 149 145 140 135 127 120 111 104 96 90 76 63 64 63 65 73 75 70 59 47 39 25 10
190 294 285 257 183 184 170 136 151 177 198 266 349 230 267 272 187 152 148 142 143 146 145 145 141 134 132 124 112 107 103 92 74 70 66 62 63 69 63 56 56 42 26 357
181 257 288 284 207 147 141 158 162 132 121 82 303 296 309 20 93 120 125 130 141 141 142 141 134 131 132 127 120 115 107 93 80 77 72 63 56 62 59 45 46 34 13 14
162 220 301 312 30 29 141 149 94 108 135 168 266 261 246 214 144 132 138 144 142 134 133 135 132 132 129 125 119 108 101 98 86 77 75 80 61 63 62 51 39 29 15 21
130 129 313 17 63 329 31 69 97 112 144 150 202 260 227 182 168 155 154 152 148 142 140 136 131 129 126 117 111 103 96 88 75 71 72 68 55 55 56 48 31 23 18 23
143 118 233 272 269 177 155 165 136 137 202 150 156 256 297 160 156 149 146 144 138 137 134 131 131 129 121 115 109 104 96 84 80 79 73 67 58 53 48 36 21 23 24 24
105 98 64 348 345 358 24 28 127 126 113 131 155 250 20 106 127 138 141 140 137 134 134 135 133 129 126 122 115 110 101 98 100 96 88 75 61 54 45 31 25 30 32 28
100 92 134 178 229 283 345 8 51 102 121 161 194 183 151 136 140 143 143 143 142 140 140 138 136 134 131 130 127 122 118 115 110 95 89 79 64 57 45 33 33 34 35 35
85 92 96 110 7 50 29 7 37 90 156 164 183 171 183 170 159 156 148 142 139 140 143 144 142 138 135 134 130 123 118 110 109 107 98 91 67 60 48 39 37 38 41 44
72 96 66 36 24 43 40 26 45 65 83 118 120 121 150 135 126 138 145 146 149 150 149 146 143 141 141 141 133 122 121 121 118 119 116 108 85 69 58 47 45 48 45 42
71 95 84 360 339 39 28 356 45 70 101 138 159 175 142 136 152 163 160 156 156 155 151 150 149 147 145 142 138 138 138 121 111 111 106 100 96 76 59 57 54 52 47 48
121 97 103 77 35 53 263 338 91 91 59 80 111 132 144 147 149 150 154 152 153 152 148 147 144 139 136 134 135 134 122 118 116 105 95 97 96 84 62 55 58 52 48 48
126 122 104 96 87 296 323 347 93 102 54 82 120 124 117 114 90 66 120 138 146 146 141 139 138 135 134 135 134 124 122 121 112 104 92 91 97 98 79 64 58 51 57 45
73 90 105 107 117 204 271 301 26 99 95 174 136 142 145 131 136 188 148 127 125 126 127 126 125 123 129 134 126 119 122 118 121 121 107 94 95 100 105 93 64 50 60 51
51 49 89 118 137 257 274 298 46 118 215 183 157 158 160 174 175 148 132 123 125 126 127 126 126 130 139 136 122 121 125 135 147 128 115 108 96 107 113 88 58 58 60 55
130 118 126 119 127 257 301 29 130 197 162 143 145 148 137 125 118 120 124 127 128 126 126 127 128 131 135 132 126 127 141 152 131 114 105 106 104 104 95 86 66 56 66 61
113 172 162 161 197 236 306 121 144 135 125 127 129 130 130 127 130 128 129 132 133 135 134 131 134 135 134 139 138 143 162 145 125 110 104 95 79 65 78 90 82 56 52 65
326 87 102 100 173 140 91 88 100 117 119 125 129 133 133 131 136 132 134 135 135 136 138 137 137 139 146 152 150 158 157 140 128 124 115 99 88 66 52 60 76 88 78 89
253 91 93 103 161 85 47 101 116 110 114 118 120 124 131 131 135 137 140 143 142 141 144 144 147 152 157 155 155 161 153 140 138 142 142 130 125 116 80 59 54 128 203 198
246 156 153 195 202 162 179 164 131 128 132 134 128 120 125 132 136 135 140 143 142 145 146 147 149 152 155 155 161 167 160 150 148 152 166 175 168 154 147 130 10 1 307 310